Home > Weather > Einsiedeln > Past weeks

Flag for Switzerland Weather for the Past 2 Weeks in Einsiedeln, Schwyz, Switzerland

Now
73 °F

Sunny.


Feels Like: 76 °F
Forecast: 40 / 64 °F
Wind: 15 mph from Southeast

Location: Altdorf

Current Time: May 6, 2016 at 3:24:47 PM

Latest Report: May 6, 2016 at 2:00 PM


Visibility: 19 mi

Pressure: 29.89 "Hg (26.98 "Hg at 887m altitude)

Humidity: 23%

Dew Point: 33 °F

Location of EinsiedelnLocation

Historic Weather in Einsiedeln — Graph

°F

Einsiedeln Temperature Yesterday

Maximum temperature yesterday: 71 °F (at 4:00 PM)
Minimum temperature yesterday: 37 °F (at 7:00 AM)
Average temperature yesterday: 53 °F

High & Low Weather Summary for the Past Weeks

 TemperatureHumidityPressure
High73 °F (May 6, 2:00 PM)97% (May 4, 6:00 AM)30.38 "Hg (May 4, 6:00 AM)
Low30 °F (Apr 28, 2:00 AM)19% (May 5, 5:00 PM)29.65 "Hg (Apr 26, 2:00 PM)
Average49 °F69%30.04 "Hg
* Reported Apr 21 2:00 PM — May 6 2:00 PM, Einsiedeln, Weather by CustomWeather, © 2016

Note: Actual official high and low records may vary slightly from our data, if they occured in-between our weather recording intervals... More about our weather records

Advertising

Einsiedeln Weather History for the Previous 24 Hours

Scroll right to see more
 ConditionsComfort  
Time TempWeatherWind HumidityBarometerVisibility
2:00 PM
Fri, May 6
73 °FSunny.15 mph23%29.89 "Hg19 mi
1:00 PM72 °FMild.16 mph22%29.91 "HgN/A
12:00 PM72 °FMild.16 mph22%29.93 "HgN/A
11:00 AM71 °FScattered clouds.16 mph23%29.95 "Hg19 mi
10:00 AM67 °FMild.18 mph25%29.97 "HgN/A
9:00 AM65 °FMild.16 mph27%29.99 "HgN/A
8:00 AM60 °FPassing clouds.15 mph33%30.02 "Hg22 mi
7:00 AM60 °FRefreshingly cool.13 mph32%30.02 "HgN/A
6:00 AM57 °FRefreshingly cool.13 mph35%30.02 "HgN/A
5:00 AM58 °FClear.13 mph35%30.03 "Hg19 mi
4:00 AM58 °FRefreshingly cool.15 mph34%30.02 "HgN/A
3:00 AM59 °FRefreshingly cool.18 mph33%30.03 "HgN/A
2:00 AM59 °FClear.17 mph32%30.03 "Hg19 mi
1:00 AM60 °FRefreshingly cool.14 mph31%30.03 "HgN/A
12:00 AM60 °FRefreshingly cool.16 mph31%30.02 "HgN/A
11:00 PM
Thu, May 5
60 °FClear.16 mph32%30.02 "Hg19 mi
10:00 PM61 °FRefreshingly cool.16 mph32%30.02 "HgN/A
9:00 PM62 °FMild.15 mph29%30.00 "HgN/A
8:00 PM64 °FSunny.15 mph27%29.99 "Hg19 mi
7:00 PM64 °FMild.16 mph28%30.00 "HgN/A
6:00 PM69 °FMild.17 mph23%29.99 "HgN/A
5:00 PM70 °FSunny.20 mph19%29.98 "Hg19 mi
4:00 PM71 °FMild.17 mph23%29.99 "HgN/A
3:00 PM69 °FMild.20 mph22%30.00 "HgN/A
Weather by CustomWeather, © 2016

See weather overviewHow to use our weather pages